FloripaSat 1
1 44885U 19093G   25194.80064822  .00004506  00000-0  37846-3 0  9998
2 44885  97.8185 282.4764 0012846  91.4300 268.8394 14.98769665301870
RS-44
1 44909U 19096E   25194.48430996  .00000025  00000-0  58667-4 0  9998
2 44909  82.5196 204.7520 0216721 216.0589 142.5730 12.79742021259024
UPMSat 2
1 46276U 20061E   25194.25741352  .00075821  00000-0  55346-3 0  9993
2 46276  97.2417 269.8739 0001957 148.8322 211.3058 15.73034044270753
SALSAT
1 46495U 20068K   25194.45371877  .00005644  00000-0  24197-3 0  9992
2 46495  97.8620 174.0591 0012570  51.4496 308.7864 15.23117625263687
CubeSX-Sirius-HSE
1 47951U 21022V   25157.62701764  .07883385  25648-5  89537-3 0  9993
2 47951  97.4004  72.1904 0010275 223.9924 136.0557 16.36879307233400
CubeSX-HSE
1 47952U 21022W   25157.69972699  .06655353  25454-5  93288-3 0  9992
2 47952  97.3980  72.5414 0010307 219.3637 140.6911 16.34906352233436
GRBAlpha
1 47959U 21022AD  25160.45426279  .07940347  25506-5  90589-3 0  9995
2 47959  97.3899  75.6235 0011032 227.2558 132.7812 16.36806138232695
TUBIN
1 48900U 21059X   25194.80859818  .00040419  00000-0  44467-3 0  9992
2 48900  97.6762   6.8881 0004108 112.4395 247.7298 15.63054245225383
LEDSAT
1 49069U 21073D   25194.88141854  .00064183  00000-0  65134-3 0  9995
2 49069  97.3871 277.9590 0007072 299.0275  61.0275 15.64992432216795
CUTE
1 49263U 21088D   25194.56454638  .00039949  00000-0  75829-3 0  9993
2 49263  97.4500 271.8302 0009168 116.9774 243.2413 15.48150738209689
TeikyoSat 4
1 49396U 21102B   25194.06699852  .00001319  00000-0  90137-4 0  9991
2 49396  97.4082 231.2852 0013120  25.9538 334.2346 15.07754052201593
Z-Sat
1 49399U 21102E   25194.84240192  .00002972  00000-0  16375-3 0  9996
2 49399  97.3776 235.3425 0017462 350.9218   9.1696 15.14643055202163
KOSEN 1
1 49402U 21102H   25194.69483743  .00004923  00000-0  22680-3 0  9999
2 49402  97.3681 238.8750 0014459 324.6764  35.3513 15.20655732202474
HO-113
1 50466U 21131B   25194.85813270  .00000297  00000-0  10655-3 0  9992
2 50466  98.5109 284.0442 0004878  47.3773 312.7826 14.40845648186386
Foresail-1
1 52766U 22057AL  25176.64799660  .13857605  27391-5  25307-3 0  9992
2 52766  97.5832 331.2310 0012137 233.7199 258.4922 16.46795272172486
SNUGLITE 2
1 52899U 22065F   25194.61268001  .00000723  00000-0  14931-3 0  9996
2 52899  98.1730 336.2631 0007784  16.8735 343.2725 14.63275187161461
UmKA 1 (RS40S)
1 57172U 23091G   25194.87442658  .00003961  00000-0  21139-3 0  9990
2 57172  97.5556 250.0810 0013589 209.8374 150.2084 15.15652252112677
CubeBel-2 (EU11S)
1 57175U 23091K   25194.87812505  .00006170  00000-0  29075-3 0  9997
2 57175  97.5554 251.4443 0011231 215.5040 144.5448 15.19820404112761
VERONIKA
1 58261U 23174F   25194.81844285  .00227473  00000-0  11189-2 0  9997
2 58261  97.4080 283.3156 0006690 241.4685 118.5910 15.81534151 94070
ENSO
1 58470U 23185J   25194.88096196  .00049499  00000-0  63105-3 0  9994
2 58470  97.3714 271.1808 0004673 306.9940  53.0888 15.59155096 90372
EIRSAT-1
1 58472U 23185L   25194.84922653  .00128221  00000-0  85650-3 0  9998
2 58472  97.3648 273.7395 0004027 271.4570  88.6234 15.74941945 90548
SONATE-2
1 59112U 24043Q   25194.82157108  .00012774  00000-0  35834-3 0  9991
2 59112  97.5182 326.7163 0010356 358.9080   1.2139 15.36663646 75596
MO-122
1 60209U 24125G   25194.30682059  .00015049  00000-0  41417-3 0  9994
2 60209  97.2758  45.5638 0018652  21.8421 338.3615 15.37085034 57139
GRBBeta
1 60237U 24128C   25194.47153237  .00002925  00000-0  22598-3 0  9995
2 60237  61.9928 321.3659 0054297  64.8633 295.8077 15.02872278 55292
Curium One
1 60242U 24128H   25194.51668910  .00005372  00000-0  37410-3 0  9993
2 60242  61.9829 318.9893 0054248  61.1254 299.5266 15.05519952 55342
ROBUSTA-3A
1 60243U 24128J   25194.46356308  .00005377  00000-0  37967-3 0  9995
2 60243  61.9902 320.1180 0053272  58.7770 301.8526 15.05043762 55325
CatSat
1 60246U 24125J   25194.16290339  .00007747  00000-0  25527-3 0  9995
2 60246  97.2558  44.2475 0041068 336.6638  23.2738 15.30914690 55122
HYPERVIEW-1G (RS66S)
1 61772U 24199AP  25194.87650050  .00016664  00000-0  46621-3 0  9995
2 61772  97.3484  63.6820 0015022  73.6676 286.6219 15.36616989 82222
AO-123
1 61781U 24199AY  25194.88300186  .00005201  00000-0  18811-3 0  9993
2 61781  97.3501  62.1942 0017461  78.0700 282.2496 15.28726238 82125
ZIMSAT 2
1 61783U 24199BA  25194.86822417  .00032101  00000-0  73227-3 0  9990
2 61783  97.3456  64.5681 0014519  71.4193 288.8630 15.42726733 85431
HADES-R (SO-124)
1 62690U 25009CK  25194.41960899  .00030494  00000-0  10155-2 0  9990
2 62690  97.4084 275.1382 0001261 353.0546   7.0677 15.31070898 27324
HYDRA-T
1 62692U 25009CM  25194.46426114  .00030234  00000-0  99741-3 0  9995
2 62692  97.4085 275.2306 0000933 339.5192  20.6012 15.31377402 27331
JINJUSat 1B
1 63210U 25052A   25194.47753050  .00008702  00000-0  39268-3 0  9996
2 63210  97.4374  88.1787 0003973 175.5658 184.5614 15.21230438 18407
NUSHSAT 1
1 63211U 25052B   25194.26936833  .00009779  00000-0  43719-3 0  9997
2 63211  97.4364  87.9829 0003736 181.5626 178.5599 15.21517758 18374
TEVEL2-4
1 63213U 25052D   25194.22403954  .00009203  00000-0  41553-3 0  9994
2 63213  97.4285  87.7626 0002396 191.2616 168.8566 15.21195721 18366
TEVEL2-5
1 63214U 25052E   25194.42243308  .00009111  00000-0  41165-3 0  9999
2 63214  97.4283  87.9561 0002408 190.8747 169.2437 15.21175521 18390
TEVEL2-6
1 63215U 25052F   25194.68859705  .00008997  00000-0  40700-3 0  9997
2 63215  97.4285  88.2133 0002437 191.9566 168.1612 15.21139765 18433
TEVEL2-1
1 63217U 25052H   25194.63882611  .00009457  00000-0  43043-3 0  9991
2 63217  97.4258  88.0884 0002125 213.3877 146.7225 15.20913446 18420
TEVEL2-2
1 63218U 25052J   25194.44172387  .00009402  00000-0  42798-3 0  9999
2 63218  97.4260  87.8947 0002113 216.7646 143.3445 15.20911641 18397
TEVEL2-3
1 63219U 25052K   25194.50777095  .00009472  00000-0  43122-3 0  9993
2 63219  97.4260  87.9589 0002100 215.8148 144.2947 15.20906169 18402
TEVEL2-8
1 63237U 25052AD  25194.66611210  .00008914  00000-0  42050-3 0  9995
2 63237  97.4322  88.0007 0006147 251.0208 109.0361 15.19682035 18413
TEVEL2-9
1 63238U 25052AE  25194.27477898  .00008279  00000-0  39166-3 0  9993
2 63238  97.4326  87.6098 0006207 252.9472 107.1083 15.19607520 18352
TEVEL2-7
1 63239U 25052AF  25194.21162803  .00008167  00000-0  38678-3 0  9998
2 63239  97.4325  87.5399 0006195 253.6387 106.4167 15.19573929 18343
HYDRA-W
1 63490U 25052BL  25194.22963104  .00022397  00000-0  90736-3 0  9995
2 63490  97.4272  88.0445 0009291 248.4105 111.6143 15.24634560 18382
HADES-ICM (SO-125)
1 63492U 25052BN  25194.25490349  .00021254  00000-0  87451-3 0  9997
2 63492  97.4281  88.0188 0009595 254.2281 105.7898 15.24120570 18387
